Regional Weather Roundup
Issued by NWS Cleveland, OH

Home | Current Version | Previous Version | Graphics & Text | Print | Product List | Glossary On
Versions: 1 2 3 4 5 6 7 8 9 10 11 12 13 14 15 16 17 18 19 20 21 22 23 24 25 26 27 28 29 30 31 32 33 34 35 36 37 38 39 40 41 42 43 44 45 46 47 48 49 50
216
ASUS41 KCLE 271510
RWRCLE
OHIO REGIONAL WEATHER ROUNDUP
NATIONAL WEATHER SERVICE CLEVELAND, OH
1100 AM EDT THU APR 27 2017

NOTE: "FAIR" INDICATES FEW OR NO CLOUDS BELOW 12,000 FEET WITH NO
SIGNIFICANT WEATHER AND/OR OBSTRUCTIONS TO VISIBILITY.

OHZ001>008-015>018-024>027-034-035-043-044-271600-
   NORTHWEST OHIO

CITY           SKY/WX    TMP DP  RH WIND       PRES   REMARKS
DEFIANCE       LGT RAIN  61  55  81 S16G25    29.53R
FINDLAY        CLOUDY    70  55  59 SW17      29.54R
TOLEDO EXPRESS LGT RAIN  67  53  61 SW12G22   29.52S
TOLEDO EXEC    LGT RAIN  71  57  61 S13       29.52F
LIMA           RAIN      62  57  83 SW21G33   29.58R
$$

OHZ009>014-019>023-028>033-038-089-271600-
   NORTHEAST OHIO

CITY           SKY/WX    TMP DP  RH WIND       PRES   REMARKS
CLE-HOPKINS    CLOUDY    77  56  48 S18G29    29.60R
CLE-LAKEFRONT  CLOUDY    77  57  50 S21G29    29.57S
CUY CO. ARPT   PTSUNNY   77  59  53 S16G28    29.61S
LORAIN-ELYRIA  CLOUDY    75  54  47 SW26G38   29.58R
ASHTABULA      PTSUNNY   76  58  53 S13G22    29.63F
AKRON-CANTON   PTSUNNY   76  57  51 S21G26    29.64S
WOOSTER        PTSUNNY   75  56  51 S20G26    29.61S
MANSFIELD      PTSUNNY   73  56  54 S21G31    29.59F
YOUNGSTOWN     CLOUDY    73  56  54 S10G20    29.65F
$$

OHZ042-051>053-060>062-070>072-077>081-271600-
  SOUTHWEST OHIO

CITY           SKY/WX    TMP DP  RH WIND       PRES   REMARKS
CINC-COVINGTON LGT RAIN  62  60  93 SW10      29.62R
CINC-LUNKEN    RAIN      64  61  90 SW18      29.63R FOG
HAMILTON       LGT RAIN  64  61  90 SW7       29.62F
DAYTON         CLOUDY    61  58  90 SW14      29.61S
WRIGHT-PAT AFB PTSUNNY   64  58  82 SW17G24   29.60R
DAYTON GENERAL CLOUDY    63  57  81 SW16G23   29.60F
WILMINGTON     PTSUNNY   71  58  63 SW31G40   29.58S
$$

OHZ036-037-039>041-045>050-054>059-063>069-073>076-082>088-271600-
  CENTRAL AND SOUTHEAST OHIO

CITY           SKY/WX    TMP DP  RH WIND       PRES   REMARKS
COLUMBUS       CLOUDY    74  57  55 S15G23    29.60F
OSU AIRPORT    PTSUNNY   72  57  59 S16G30    29.58F
BOLTON FIELD   PTSUNNY   72  57  60 S20G25    29.59F
RICKENBACK AFB PTSUNNY   72  56  57 S21G30    29.59S
NEWARK         PTSUNNY   74  55  51 S15G30    29.61F
MARION         CLOUDY    74  56  53 S24G36    29.57F
LANCASTER      CLOUDY    75  57  53 S12G25    29.61F
ZANESVILLE     PTSUNNY   74  56  53 S14G22    29.65F
NEW PHILLY     NOT AVBL
$$




USA.gov is the U.S. government's official web portal to all federal, state and local government web resources and services.